Watford City, ND

2:56 PM CDT on July 26, 2017 (GMT -0500)
Watford City

Weather History for KS25 - October, 2013

Change the Weather History Date:

Thursday, October 17, 2013

  Actual Average (KISN) Record (KISN)
Temperature  
Mean Temperature 40 °F -  
Max Temperature 46 °F 55 °F 83 °F (1914)
Min Temperature 33 °F 29 °F 11 °F (1919)
Degree Days  
Heating Degree Days 26    
Moisture  
Dew Point 30 °F    
Average Humidity 74    
Maximum Humidity 100    
Minimum Humidity 43    
Precipitation  
Precipitation 0.03 in - - ()
Sea Level Pressure  
Sea Level Pressure 30.04 in    
Wind  
Wind Speed 10 mph (WNW)    
Max Wind Speed 15 mph    
Max Gust Speed 24 mph    
Visibility 10 miles    
Events Rain    
Averages and records for this station are not official NWS values.
T = Trace of Precipitation, MM = Missing Value Source: NWS Daily Summary

Daily Weather History Graph

Daily Weather History Graph

Search for Another Location

Airport or City:

Trip Planner

Search our weather history database for the weather conditions in past years. The results will help you decide how hot, cold, wet, or windy it might be!

Date:

Astronomy

Oct. 17, 2013 Rise Set
Actual Time 8:15 AM CDT 7:00 PM CDT
Civil Twilight 7:44 AM CDT 7:31 PM CDT
Nautical Twilight 7:08 AM CDT 8:07 PM CDT
Astronomical Twilight 6:32 AM CDT 8:43 PM CDT
Moon 6:18 PM CDT (10/17) 6:45 AM CDT (10/17)
Length of Visible Light 11h 47m
Length of Day
10h 44m
Waxing Gibbous, 98% of the Moon is Illuminated
Oct 17
Waxing Gibbous
Oct 18
Full
Oct 26
Last Quarter
Nov 3
New
Nov 9
First Quarter

Hourly Weather History & Observations

Time (CDT) Temp. Windchill Dew Point Humidity Pressure Visibility Wind Dir Wind Speed Gust Speed Precip Events Conditions
12:15 AM 37.4 °F 28.5 °F 35.6 °F 93% 30.00 in 8.0 mi NNW 15.0 mph 24.2 mph N/A Rain Light Rain
12:35 AM 37.4 °F 30.3 °F 35.6 °F 93% 30.00 in 10.0 mi NNW 10.4 mph 19.6 mph N/A Rain Light Rain
12:55 AM 37.4 °F 29.8 °F 35.6 °F 93% 30.01 in 10.0 mi NNW 11.5 mph - N/A   Overcast
1:15 AM 37.4 °F 29.8 °F 33.8 °F 87% 30.01 in 10.0 mi NNW 11.5 mph - N/A   Overcast
1:35 AM 35.6 °F 27.5 °F 32.0 °F 87% 30.02 in 10.0 mi NNW 11.5 mph - N/A   Mostly Cloudy
1:55 AM 35.6 °F 28.0 °F 32.0 °F 87% 30.02 in 10.0 mi NNW 10.4 mph - N/A   Mostly Cloudy
2:15 AM 35.6 °F 28.6 °F 32.0 °F 87% 30.03 in 10.0 mi NW 9.2 mph - N/A   Scattered Clouds
2:35 AM 35.6 °F 29.2 °F 32.0 °F 87% 30.03 in 10.0 mi NW 8.1 mph - N/A   Clear
2:55 AM 33.8 °F 27.0 °F 32.0 °F 93% 30.04 in 10.0 mi NW 8.1 mph - N/A   Clear
3:15 AM 33.8 °F 26.4 °F 30.2 °F 87% 30.04 in 10.0 mi NW 9.2 mph - N/A   Mostly Cloudy
3:35 AM 33.8 °F 28.6 °F 32.0 °F 93% 30.04 in 10.0 mi WNW 5.8 mph - N/A   Overcast
3:55 AM 33.8 °F 28.6 °F 30.2 °F 87% 30.04 in 10.0 mi NW 5.8 mph - N/A   Mostly Cloudy
4:15 AM 33.8 °F 26.4 °F 30.2 °F 87% 30.04 in 10.0 mi WNW 9.2 mph - N/A   Mostly Cloudy
4:35 AM 33.8 °F 27.7 °F 30.2 °F 87% 30.04 in 10.0 mi NW 6.9 mph - N/A   Overcast
4:55 AM 33.8 °F 27.7 °F 32.0 °F 93% 30.04 in 10.0 mi WNW 6.9 mph - N/A   Overcast
5:15 AM 33.8 °F 27.0 °F 32.0 °F 93% 30.05 in 10.0 mi WNW 8.1 mph - N/A   Overcast
5:35 AM 35.6 °F 29.2 °F 32.0 °F 87% 30.05 in 10.0 mi WNW 8.1 mph - N/A   Overcast
5:55 AM 35.6 °F 29.2 °F 32.0 °F 87% 30.06 in 10.0 mi WNW 8.1 mph - N/A   Overcast
6:15 AM 35.6 °F 29.2 °F 32.0 °F 87% 30.06 in 10.0 mi WNW 8.1 mph - N/A   Overcast
6:35 AM 35.6 °F 28.6 °F 32.0 °F 87% 30.06 in 10.0 mi WNW 9.2 mph - N/A   Overcast
6:55 AM 35.6 °F 28.6 °F 32.0 °F 87% 30.07 in 10.0 mi WNW 9.2 mph - N/A   Overcast
7:15 AM 35.6 °F 29.2 °F 32.0 °F 87% 30.07 in 10.0 mi WNW 8.1 mph - N/A   Overcast
7:35 AM 35.6 °F 28.6 °F 32.0 °F 87% 30.07 in 10.0 mi WNW 9.2 mph - N/A   Overcast
7:55 AM 35.6 °F 29.9 °F 32.0 °F 87% 30.07 in 10.0 mi WNW 6.9 mph - N/A   Overcast
8:15 AM 35.6 °F 29.9 °F 30.2 °F 81% 30.08 in 10.0 mi WNW 6.9 mph - N/A   Overcast
8:35 AM 33.8 °F 27.0 °F 30.2 °F 87% 30.09 in 10.0 mi WNW 8.1 mph - N/A   Mostly Cloudy
8:55 AM 33.8 °F 27.0 °F 30.2 °F 87% 30.09 in 10.0 mi WNW 8.1 mph - N/A   Mostly Cloudy
9:15 AM 35.6 °F 29.2 °F 28.4 °F 75% 30.09 in 10.0 mi NW 8.1 mph - N/A   Mostly Cloudy
9:35 AM 35.6 °F 28.6 °F 28.4 °F 75% 30.09 in 10.0 mi WNW 9.2 mph - N/A   Overcast
9:55 AM 35.6 °F 29.2 °F 28.4 °F 75% 30.10 in 10.0 mi West 8.1 mph - N/A   Scattered Clouds
10:15 AM 37.4 °F 31.4 °F 32.0 °F 81% 30.10 in 10.0 mi West 8.1 mph - N/A   Clear
10:35 AM 37.4 °F 29.8 °F 30.2 °F 75% 30.09 in 10.0 mi WNW 11.5 mph - N/A   Clear
10:55 AM 39.2 °F 32.5 °F 30.2 °F 70% 30.09 in 10.0 mi NW 10.4 mph - N/A   Clear
11:15 AM 39.2 °F 33.0 °F 30.2 °F 70% 30.09 in 10.0 mi WNW 9.2 mph - N/A   Partly Cloudy
11:35 AM 41.0 °F 35.2 °F 28.4 °F 61% 30.08 in 10.0 mi WNW 9.2 mph - N/A   Partly Cloudy
11:55 AM 41.0 °F 33.5 °F 28.4 °F 61% 30.08 in 10.0 mi WNW 13.8 mph 17.3 mph N/A   Clear
12:15 PM 41.0 °F 34.3 °F 28.4 °F 61% 30.08 in 10.0 mi WNW 11.5 mph 19.6 mph N/A   Partly Cloudy
12:35 PM 41.0 °F 34.7 °F 28.4 °F 61% 30.08 in 10.0 mi WNW 10.4 mph 16.1 mph N/A   Partly Cloudy
12:55 PM 42.8 °F 36.6 °F 28.4 °F 57% 30.08 in 10.0 mi NW 11.5 mph - N/A   Partly Cloudy
1:15 PM 44.6 °F 39.2 °F 28.4 °F 53% 30.07 in 10.0 mi NW 10.4 mph - N/A   Clear
1:35 PM 42.8 °F 36.2 °F 28.4 °F 57% 30.06 in 10.0 mi NW 12.7 mph 17.3 mph N/A   Partly Cloudy
1:55 PM 42.8 °F 36.2 °F 28.4 °F 57% 30.06 in 10.0 mi WNW 12.7 mph - N/A   Partly Cloudy
2:15 PM 42.8 °F 38.6 °F 26.6 °F 53% 30.05 in 10.0 mi NW 6.9 mph - N/A   Scattered Clouds
2:35 PM 42.8 °F 37.0 °F 26.6 °F 53% 30.04 in 10.0 mi NW 10.4 mph 16.1 mph N/A   Mostly Cloudy
2:55 PM 44.6 °F 38.4 °F 26.6 °F 49% 30.04 in 10.0 mi WNW 12.7 mph - N/A   Overcast
3:15 PM 42.8 °F 37.5 °F 26.6 °F 53% 30.04 in 10.0 mi WNW 9.2 mph 16.1 mph N/A   Scattered Clouds
3:35 PM 44.6 °F 39.7 °F 26.6 °F 49% 30.03 in 10.0 mi NW 9.2 mph - N/A   Scattered Clouds
3:55 PM 44.6 °F 39.2 °F 24.8 °F 46% 30.03 in 10.0 mi NW 10.4 mph 17.3 mph N/A   Mostly Cloudy
4:15 PM 46.4 °F 40.7 °F 24.8 °F 43% 30.02 in 10.0 mi WNW 12.7 mph 18.4 mph N/A   Mostly Cloudy
4:35 PM 44.6 °F 38.4 °F 24.8 °F 46% 30.02 in 10.0 mi NW 12.7 mph 19.6 mph N/A   Overcast
4:55 PM 42.8 °F 37.5 °F 26.6 °F 53% 30.02 in 10.0 mi WNW 9.2 mph - N/A   Mostly Cloudy
5:15 PM 44.6 °F 39.2 °F 26.6 °F 49% 30.02 in 10.0 mi WNW 10.4 mph - N/A   Mostly Cloudy
5:35 PM 44.6 °F 40.7 °F 24.8 °F 46% 30.01 in 10.0 mi WNW 6.9 mph - N/A   Mostly Cloudy
5:55 PM 44.6 °F 40.7 °F 26.6 °F 49% 30.01 in 10.0 mi West 6.9 mph - N/A   Mostly Cloudy
6:15 PM 44.6 °F 40.7 °F 26.6 °F 49% 30.00 in 10.0 mi WSW 6.9 mph - N/A   Mostly Cloudy
6:35 PM 42.8 °F 37.0 °F 26.6 °F 53% 30.01 in 10.0 mi West 10.4 mph - N/A   Scattered Clouds
6:55 PM 39.2 °F 35.0 °F 28.4 °F 65% 30.00 in 10.0 mi WSW 5.8 mph - N/A   Partly Cloudy
7:15 PM 37.4 °F 32.8 °F 28.4 °F 70% 30.00 in 10.0 mi SW 5.8 mph - N/A   Clear
7:35 PM 35.6 °F 31.7 °F 28.4 °F 75% 30.00 in 10.0 mi SW 4.6 mph - N/A   Partly Cloudy
7:55 PM 35.6 °F 30.7 °F 28.4 °F 75% 30.00 in 10.0 mi SW 5.8 mph - N/A   Scattered Clouds
8:15 PM 35.6 °F 30.7 °F 28.4 °F 75% 30.00 in 10.0 mi SW 5.8 mph - N/A   Scattered Clouds
8:35 PM 33.8 °F 27.7 °F 28.4 °F 81% 30.00 in 10.0 mi SW 6.9 mph - N/A   Scattered Clouds
8:55 PM 35.6 °F 29.9 °F 30.2 °F 81% 30.00 in 10.0 mi SW 6.9 mph - N/A   Mostly Cloudy
9:15 PM 33.8 °F 27.7 °F 28.4 °F 81% 30.00 in 10.0 mi SW 6.9 mph - N/A   Scattered Clouds
9:35 PM 33.8 °F 27.7 °F 28.4 °F 81% 30.00 in 10.0 mi WNW 6.9 mph - N/A   Clear
9:55 PM 37.4 °F 32.8 °F 30.2 °F 75% 30.00 in 10.0 mi WNW 5.8 mph - N/A   Mostly Cloudy
10:15 PM 37.4 °F 31.4 °F 32.0 °F 81% 30.00 in 10.0 mi West 8.1 mph - N/A   Mostly Cloudy
10:35 PM 39.2 °F 33.6 °F 32.0 °F 75% 30.01 in 10.0 mi WNW 8.1 mph - N/A Rain Light Rain
10:55 PM 37.4 °F 32.1 °F 33.8 °F 87% 30.01 in 10.0 mi WNW 6.9 mph - N/A Rain Light Rain
11:15 PM 37.4 °F 29.8 °F 33.8 °F 87% 30.01 in 9.0 mi West 11.5 mph 16.1 mph N/A Rain Light Rain
11:35 PM 37.4 °F 30.3 °F 35.6 °F 93% 30.01 in 7.0 mi WNW 10.4 mph - 0.03 in Rain Light Rain
11:55 PM 35.6 °F 28.0 °F 35.6 °F 100% 30.00 in 10.0 mi West 10.4 mph - 0.03 in   Overcast